,,,PA_Meas_PMT16A,,PR_Meas_QMR101_102,,RH_Meas_QMH101,,SR_Meas_QMS101,,TA_Meas_QMH101,,GenWind,,GenWind,
date,time,status,PA,status,PR,status,RH,status,SR,status,TA,status,DirAvg,status,SpdAvg,
2012-11-15, 00:00:04,VALID,1009.81,VALID,0,VALID,104,VALID,0.112112,VALID,24.1599,VALID,345,VALID,0.178516,
2012-11-15, 00:01:04,VALID,1009.8,VALID,0,VALID,104,VALID,0,VALID,24.1404,VALID,345,VALID,0.409375,
2012-11-15, 00:02:04,VALID,1009.86,VALID,0,VALID,104,VALID,0,VALID,24.1404,VALID,345,VALID,0.307031,
2012-11-15, 00:03:04,VALID,1009.82,VALID,0,VALID,104,VALID,0.112112,VALID,24.1599,VALID,345,VALID,0.476563,
2012-11-15, 00:04:04,VALID,1009.87,VALID,0,VALID,104,VALID,0.112112,VALID,24.1793,VALID,345,VALID,0.585547,
2012-11-15, 00:05:04,VALID,1009.83,VALID,0,VALID,104,VALID,0.112112,VALID,24.1793,VALID,345,VALID,0.411328,
2012-11-15, 00:06:04,VALID,1009.85,VALID,0,VALID,104,VALID,0,VALID,24.1793,VALID,345,VALID,0.290234,
2012-11-15, 00:07:04,VALID,1009.84,VALID,0,VALID,104,VALID,0,VALID,24.1812,VALID,345,VALID,0.287891,
2012-11-15, 00:08:04,VALID,1009.84,VALID,0,VALID,104,VALID,0.112112,VALID,24.2202,VALID,345,VALID,0.04375,
2012-11-15, 00:09:04,VALID,1009.83,VALID,0,VALID,104,VALID,0,VALID,24.2183,VALID,345,VALID,0,
2012-11-15, 00:10:04,VALID,1009.84,VALID,0,VALID,104,VALID,0.112112,VALID,24.2183,VALID,345,VALID,0,
2012-11-15, 00:11:04,VALID,1009.84,VALID,0,VALID,104,VALID,0.112112,VALID,24.1988,VALID,345,VALID,0,
2012-11-15, 00:12:04,VALID,1009.84,VALID,0,VALID,104,VALID,0,VALID,24.2183,VALID,345,VALID,0.379297,
2012-11-15, 00:13:04,VALID,1009.84,VALID,0,VALID,104,VALID,0.112112,VALID,24.1988,VALID,345,VALID,0.126563,
2012-11-15, 00:14:04,VALID,1009.82,VALID,0,VALID,104,VALID,0,VALID,24.1988,VALID,345,VALID,0,
2012-11-15, 00:15:04,VALID,1009.78,VALID,0,VALID,104,VALID,0.112112,VALID,24.1988,VALID,345,VALID,0.203516,
2012-11-15, 00:16:04,VALID,1009.78,VALID,0,VALID,104,VALID,0,VALID,24.2007,VALID,345,VALID,0.148438,
2012-11-15, 00:17:04,VALID,1009.74,VALID,0,VALID,104,VALID,0,VALID,24.2415,VALID,345,VALID,0.233594,
2012-11-15, 00:18:04,VALID,1009.75,VALID,0,VALID,104,VALID,0,VALID,24.2202,VALID,345,VALID,0.344922,
2012-11-15, 00:19:04,VALID,1009.74,VALID,0,VALID,104,VALID,0,VALID,24.2415,VALID,345,VALID,0.342969,
2012-11-15, 00:20:04,VALID,1009.72,VALID,0,VALID,104,VALID,0,VALID,24.2202,VALID,345,VALID,0.04375,
2012-11-15, 00:21:04,VALID,1009.74,VALID,0,VALID,104,VALID,0,VALID,24.2396,VALID,345,VALID,0,
2012-11-15, 00:22:04,VALID,1009.72,VALID,0,VALID,104,VALID,0,VALID,24.2396,VALID,345,VALID,0,
2012-11-15, 00:23:04,VALID,1009.74,VALID,0,VALID,104,VALID,0,VALID,24.2415,VALID,345,VALID,0,
2012-11-15, 00:24:04,VALID,1009.73,VALID,0,VALID,104,VALID,0,VALID,24.2415,VALID,345,VALID,0,
2012-11-15, 00:25:04,VALID,1009.74,VALID,0,VALID,104,VALID,0,VALID,24.2202,VALID,345,VALID,0.0675781,
2012-11-15, 00:26:04,VALID,1009.75,VALID,0,VALID,104,VALID,0,VALID,24.2415,VALID,345,VALID,0.238281,
2012-11-15, 00:27:04,VALID,1009.73,VALID,0,VALID,104,VALID,0,VALID,24.2202,VALID,345,VALID,0.183203,
2012-11-15, 00:28:04,VALID,1009.74,VALID,0,VALID,104,VALID,0,VALID,24.261,VALID,345,VALID,0.205078,
2012-11-15, 00:29:04,VALID,1009.73,VALID,0,VALID,104,VALID,0,VALID,24.2396,VALID,345,VALID,0.230078,
2012-11-15, 00:30:04,VALID,1009.68,VALID,0,VALID,104,VALID,0,VALID,24.2805,VALID,345,VALID,0.228906,
2012-11-15, 00:31:04,VALID,1009.68,VALID,0,VALID,104,VALID,0.112112,VALID,24.2786,VALID,345,VALID,0.322656,
2012-11-15, 00:32:04,VALID,1009.71,VALID,0,VALID,104,VALID,0.112112,VALID,24.2573,VALID,345,VALID,0.303906,
2012-11-15, 00:33:04,VALID,1009.66,VALID,0,VALID,104,VALID,0.112112,VALID,24.2396,VALID,345,VALID,0.394141,
2012-11-15, 00:34:04,VALID,1009.68,VALID,0,VALID,104,VALID,0.112112,VALID,24.2378,VALID,345,VALID,0.0289063,
2012-11-15, 00:35:04,VALID,1009.65,VALID,0,VALID,104,VALID,0.112112,VALID,24.2378,VALID,345,VALID,0.323438,
2012-11-15, 00:36:04,VALID,1009.62,VALID,0,VALID,104,VALID,0.112112,VALID,24.2786,VALID,345,VALID,0.29375,
2012-11-15, 00:37:04,VALID,1009.58,VALID,0,VALID,104,VALID,0.112112,VALID,24.2573,VALID,345,VALID,0.149219,
2012-11-15, 00:38:04,VALID,1009.57,VALID,0,VALID,104,VALID,0.112112,VALID,24.2378,VALID,345,VALID,0.337109,
2012-11-15, 00:39:04,VALID,1009.57,VALID,0,VALID,104,VALID,0.112112,VALID,24.2591,VALID,345,VALID,0.449219,
2012-11-15, 00:40:04,VALID,1009.54,VALID,0,VALID,104,VALID,0.112112,VALID,24.2183,VALID,345,VALID,0.426172,
2012-11-15, 00:41:04,VALID,1009.57,VALID,0,VALID,104,VALID,0.112112,VALID,24.2183,VALID,345,VALID,0.504297,
2012-11-15, 00:42:04,VALID,1009.54,VALID,0,VALID,104,VALID,0.112112,VALID,24.2183,VALID,345,VALID,0.539844,
2012-11-15, 00:43:04,VALID,1009.55,VALID,0,VALID,104,VALID,0,VALID,24.2183,VALID,345,VALID,0.346875,
2012-11-15, 00:44:04,VALID,1009.52,VALID,0,VALID,104,VALID,0.112112,VALID,24.2183,VALID,345,VALID,0.285547,
2012-11-15, 00:45:04,VALID,1009.5,VALID,0,VALID,104,VALID,0.112112,VALID,24.2183,VALID,345,VALID,0.271094,
2012-11-15, 00:46:04,VALID,1009.47,VALID,0,VALID,104,VALID,0.112112,VALID,24.2396,VALID,345,VALID,0.347266,
2012-11-15, 00:47:04,VALID,1009.46,VALID,0,VALID,104,VALID,0,VALID,24.2378,VALID,345,VALID,0.509375,
2012-11-15, 00:48:04,VALID,1009.41,VALID,0,VALID,104,VALID,0.112112,VALID,24.2396,VALID,345,VALID,0.401172,
2012-11-15, 00:49:04,VALID,1009.4,VALID,0,VALID,104,VALID,0.112112,VALID,24.2183,VALID,345,VALID,0.143359,
2012-11-15, 00:50:05,VALID,1009.41,VALID,0,VALID,104,VALID,0.112112,VALID,24.1988,VALID,345,VALID,0.325,
2012-11-15, 00:51:05,VALID,1009.4,VALID,0,VALID,104,VALID,0.112112,VALID,24.2183,VALID,345,VALID,0.285547,
2012-11-15, 00:52:05,VALID,1009.42,VALID,0,VALID,104,VALID,0.112112,VALID,24.2007,VALID,345,VALID,0.452344,
2012-11-15, 00:53:05,VALID,1009.45,VALID,0,VALID,104,VALID,0.112112,VALID,24.1988,VALID,345,VALID,0.269141,
2012-11-15, 00:54:05,VALID,1009.4,VALID,0,VALID,104,VALID,0.112112,VALID,24.1988,VALID,345,VALID,0.303516,
2012-11-15, 00:55:05,VALID,1009.41,VALID,0,VALID,104,VALID,0,VALID,24.1988,VALID,345,VALID,0.480859,
2012-11-15, 00:56:05,VALID,1009.41,VALID,0,VALID,104,VALID,0.112112,VALID,24.1988,VALID,345,VALID,0.5125,
2012-11-15, 00:57:05,VALID,1009.38,VALID,0,VALID,104,VALID,0.112112,VALID,24.1793,VALID,345,VALID,0.618359,
2012-11-15, 00:58:05,VALID,1009.38,VALID,0,VALID,104,VALID,0.112112,VALID,24.1793,VALID,345,VALID,0.630859,
2012-11-15, 00:59:05,VALID,1009.35,VALID,0,VALID,104,VALID,0.112112,VALID,24.1988,VALID,345,VALID,0.280859,
2012-11-15, 01:00:05,VALID,1009.38,VALID,0,VALID,104,VALID,0.112112,VALID,24.2007,VALID,345,VALID,0.428906,
2012-11-15, 01:01:05,VALID,1009.35,VALID,0,VALID,104,VALID,0.112112,VALID,24.1988,VALID,345,VALID,0.242578,
2012-11-15, 01:02:05,VALID,1009.33,VALID,0,VALID,104,VALID,0.112112,VALID,24.1988,VALID,345,VALID,0.319141,
2012-11-15, 01:03:05,VALID,1009.29,VALID,0,VALID,104,VALID,0.112112,VALID,24.1988,VALID,345,VALID,0.397656,
2012-11-15, 01:04:05,VALID,1009.31,VALID,0,VALID,104,VALID,0.112112,VALID,24.2183,VALID,345,VALID,0.377734,
2012-11-15, 01:05:05,VALID,1009.31,VALID,0,VALID,104,VALID,0.112112,VALID,24.2007,VALID,358,VALID,0.462109,
2012-11-15, 01:06:05,VALID,1009.29,VALID,0,VALID,104,VALID,0.112112,VALID,24.1793,VALID,358,VALID,0.396094,
2012-11-15, 01:07:05,VALID,1009.27,VALID,0,VALID,104,VALID,0,VALID,24.1793,VALID,358,VALID,0.184766,
2012-11-15, 01:08:05,VALID,1009.25,VALID,0,VALID,104,VALID,0.112112,VALID,24.1812,VALID,358,VALID,0.425391,
2012-11-15, 01:09:05,VALID,1009.22,VALID,0,VALID,104,VALID,0.112112,VALID,24.1812,VALID,358,VALID,0.215234,
2012-11-15, 01:10:05,VALID,1009.22,VALID,0,VALID,104,VALID,0.112112,VALID,24.1812,VALID,358,VALID,0.422266,
2012-11-15, 01:11:05,VALID,1009.19,VALID,0,VALID,104,VALID,0.112112,VALID,24.1793,VALID,358,VALID,0.0863281,
2012-11-15, 01:12:05,VALID,1009.23,VALID,0,VALID,104,VALID,0.112112,VALID,24.1599,VALID,358,VALID,0,
2012-11-15, 01:13:05,VALID,1009.22,VALID,0,VALID,104,VALID,0,VALID,24.1812,VALID,358,VALID,0.30625,
2012-11-15, 01:14:05,VALID,1009.22,VALID,0,VALID,104,VALID,0.112112,VALID,24.1599,VALID,358,VALID,0,
2012-11-15, 01:15:05,VALID,1009.25,VALID,0,VALID,104,VALID,0.112112,VALID,24.1599,VALID,358,VALID,0,
2012-11-15, 01:16:05,VALID,1009.24,VALID,0,VALID,104,VALID,0.112112,VALID,24.1599,VALID,358,VALID,0.305859,
2012-11-15, 01:17:05,VALID,1009.19,VALID,0,VALID,104,VALID,0.112112,VALID,24.1617,VALID,355,VALID,0.460156,
2012-11-15, 01:18:05,VALID,1009.2,VALID,0,VALID,104,VALID,0.112112,VALID,24.1404,VALID,353,VALID,0.00117188,
2012-11-15, 01:19:05,VALID,1009.2,VALID,0,VALID,104,VALID,0.112112,VALID,24.1599,VALID,348,VALID,0.658594,
2012-11-15, 01:20:05,VALID,1009.24,VALID,0,VALID,104,VALID,0.112112,VALID,24.1599,VALID,348,VALID,0.151172,
2012-11-15, 01:21:05,VALID,1009.25,VALID,0,VALID,104,VALID,0.112112,VALID,24.1404,VALID,348,VALID,0.141797,
2012-11-15, 01:22:05,VALID,1009.25,VALID,0,VALID,104,VALID,0.112112,VALID,24.1617,VALID,348,VALID,0.280469,
2012-11-15, 01:23:05,VALID,1009.24,VALID,0,VALID,104,VALID,0.112112,VALID,24.1404,VALID,348,VALID,0.250781,
2012-11-15, 01:24:05,VALID,1009.25,VALID,0,VALID,104,VALID,0,VALID,24.1209,VALID,348,VALID,0.383594,
2012-11-15, 01:25:05,VALID,1009.19,VALID,0,VALID,104,VALID,0,VALID,24.1617,VALID,348,VALID,0.462891,
2012-11-15, 01:26:05,VALID,1009.18,VALID,0,VALID,104,VALID,0,VALID,24.1404,VALID,348,VALID,0.234375,
2012-11-15, 01:27:05,VALID,1009.21,VALID,0,VALID,104,VALID,0.112112,VALID,24.1404,VALID,351,VALID,0.557813,
2012-11-15, 01:28:05,VALID,1009.17,VALID,0,VALID,104,VALID,0.112112,VALID,24.1404,VALID,39,VALID,0.514453,
2012-11-15, 01:29:05,VALID,1009.18,VALID,0,VALID,104,VALID,0,VALID,24.1617,VALID,40,VALID,0.455078,
2012-11-15, 01:30:05,VALID,1009.17,VALID,0,VALID,104,VALID,0.112112,VALID,24.1404,VALID,40,VALID,0.253906,
2012-11-15, 01:31:05,VALID,1009.17,VALID,0,VALID,104,VALID,0,VALID,24.1617,VALID,40,VALID,0.324219,
2012-11-15, 01:32:05,VALID,1009.17,VALID,0,VALID,104,VALID,0,VALID,24.1617,VALID,40,VALID,0.213672,
2012-11-15, 01:33:05,VALID,1009.17,VALID,0,VALID,104,VALID,0,VALID,24.1617,VALID,40,VALID,0.252344,
2012-11-15, 01:34:05,VALID,1009.12,VALID,0,VALID,104,VALID,0,VALID,24.1617,VALID,40,VALID,0.0722656,
2012-11-15, 01:35:05,VALID,1009.11,VALID,0,VALID,104,VALID,0,VALID,24.1599,VALID,40,VALID,0,
2012-11-15, 01:36:05,VALID,1009.06,VALID,0,VALID,104,VALID,0,VALID,24.1617,VALID,40,VALID,0,
2012-11-15, 01:37:05,VALID,1009.04,VALID,0,VALID,104,VALID,0.112112,VALID,24.1617,VALID,40,VALID,0,
2012-11-15, 01:38:05,VALID,1009.08,VALID,0,VALID,104,VALID,0,VALID,24.1422,VALID,40,VALID,0.23125,
2012-11-15, 01:39:05,VALID,1009.06,VALID,0,VALID,104,VALID,0,VALID,24.1404,VALID,40,VALID,0.290234,
2012-11-15, 01:40:05,VALID,1009.05,VALID,0,VALID,104,VALID,0,VALID,24.1599,VALID,40,VALID,0.221875,
2012-11-15, 01:41:05,VALID,1009.04,VALID,0,VALID,104,VALID,0,VALID,24.1599,VALID,38,VALID,0.382422,
2012-11-15, 01:42:05,VALID,1009.01,VALID,0,VALID,104,VALID,0,VALID,24.1599,VALID,38,VALID,0.142188,
2012-11-15, 01:43:05,VALID,1009,VALID,0,VALID,104,VALID,0,VALID,24.1812,VALID,39,VALID,0,
2012-11-15, 01:44:05,VALID,1008.98,VALID,0,VALID,104,VALID,0,VALID,24.1793,VALID,38,VALID,0,
2012-11-15, 01:45:05,VALID,1008.96,VALID,0,VALID,104,VALID,0,VALID,24.1793,VALID,38,VALID,0,
2012-11-15, 01:46:05,VALID,1008.96,VALID,0,VALID,104,VALID,0.112112,VALID,24.2007,VALID,38,VALID,0,
2012-11-15, 01:47:05,VALID,1008.96,VALID,0,VALID,104,VALID,0,VALID,24.2007,VALID,38,VALID,0.295312,
2012-11-15, 01:48:05,VALID,1008.92,VALID,0,VALID,104,VALID,0,VALID,24.2202,VALID,38,VALID,0.191797,
2012-11-15, 01:49:05,VALID,1008.9,VALID,0,VALID,104,VALID,0,VALID,24.2202,VALID,38,VALID,0.346094,
2012-11-15, 01:50:05,VALID,1008.9,VALID,0,VALID,104,VALID,0,VALID,24.2202,VALID,38,VALID,0.248047,
2012-11-15, 01:51:05,VALID,1008.88,VALID,0,VALID,104,VALID,0,VALID,24.2202,VALID,38,VALID,0.432813,
2012-11-15, 01:52:05,VALID,1008.85,VALID,0,VALID,104,VALID,0,VALID,24.2396,VALID,38,VALID,0.405469,
2012-11-15, 01:53:05,VALID,1008.83,VALID,0,VALID,104,VALID,0,VALID,24.2183,VALID,38,VALID,0.448047,
2012-11-15, 01:54:05,VALID,1008.83,VALID,0,VALID,104,VALID,0,VALID,24.2396,VALID,38,VALID,0.223438,
2012-11-15, 01:55:05,VALID,1008.81,VALID,0,VALID,104,VALID,0,VALID,24.1988,VALID,38,VALID,0,
2012-11-15, 01:56:05,VALID,1008.85,VALID,0,VALID,104,VALID,0.112112,VALID,24.2396,VALID,38,VALID,0,
2012-11-15, 01:57:05,VALID,1008.82,VALID,0,VALID,104,VALID,0.112112,VALID,24.1988,VALID,38,VALID,0,
2012-11-15, 01:58:05,VALID,1008.82,VALID,0,VALID,104,VALID,0,VALID,24.2007,VALID,38,VALID,0,
2012-11-15, 01:59:05,VALID,1008.81,VALID,0,VALID,104,VALID,0,VALID,24.1812,VALID,38,VALID,0,
2012-11-15, 02:00:05,VALID,1008.81,VALID,0,VALID,104,VALID,0,VALID,24.1617,VALID,38,VALID,0,
2012-11-15, 02:01:05,VALID,1008.8,VALID,0,VALID,104,VALID,0,VALID,24.1422,VALID,38,VALID,0,
2012-11-15, 02:02:05,VALID,1008.8,VALID,0,VALID,104,VALID,0.112112,VALID,24.1209,VALID,38,VALID,0,
2012-11-15, 02:03:05,VALID,1008.73,VALID,0,VALID,104,VALID,0,VALID,24.1227,VALID,38,VALID,0,
2012-11-15, 02:04:05,VALID,1008.74,VALID,0,VALID,104,VALID,0,VALID,24.1227,VALID,38,VALID,0,
2012-11-15, 02:05:05,VALID,1008.73,VALID,0,VALID,104,VALID,0,VALID,24.1209,VALID,38,VALID,0,
2012-11-15, 02:06:05,VALID,1008.7,VALID,0,VALID,104,VALID,0,VALID,24.1227,VALID,38,VALID,0,
2012-11-15, 02:07:05,VALID,1008.68,VALID,0,VALID,104,VALID,0,VALID,24.1014,VALID,38,VALID,0,
2012-11-15, 02:08:05,VALID,1008.66,VALID,0,VALID,104,VALID,0.112112,VALID,24.1014,VALID,38,VALID,0,
2012-11-15, 02:09:05,VALID,1008.67,VALID,0,VALID,104,VALID,0,VALID,24.1014,VALID,38,VALID,0,
2012-11-15, 02:10:05,VALID,1008.63,VALID,0,VALID,104,VALID,0,VALID,24.1032,VALID,38,VALID,0,
2012-11-15, 02:11:05,VALID,1008.62,VALID,0,VALID,104,VALID,0,VALID,24.1032,VALID,38,VALID,0,
2012-11-15, 02:12:05,VALID,1008.62,VALID,0,VALID,104,VALID,0.112112,VALID,24.0837,VALID,38,VALID,0,
2012-11-15, 02:13:05,VALID,1008.62,VALID,0,VALID,104,VALID,0,VALID,24.0837,VALID,38,VALID,0,
2012-11-15, 02:14:05,VALID,1008.58,VALID,0,VALID,104,VALID,0,VALID,24.0643,VALID,38,VALID,0,
2012-11-15, 02:15:05,VALID,1008.59,VALID,0,VALID,104,VALID,0,VALID,24.0643,VALID,38,VALID,0,
2012-11-15, 02:16:05,VALID,1008.61,VALID,0,VALID,104,VALID,0,VALID,24.0624,VALID,38,VALID,0,
2012-11-15, 02:17:05,VALID,1008.58,VALID,0,VALID,104,VALID,0,VALID,24.0624,VALID,38,VALID,0,
2012-11-15, 02:18:05,VALID,1008.61,VALID,0,VALID,104,VALID,0,VALID,24.0819,VALID,39,VALID,0,
2012-11-15, 02:19:05,VALID,1008.57,VALID,0,VALID,104,VALID,0.112112,VALID,24.1014,VALID,39,VALID,0,
2012-11-15, 02:20:05,VALID,1008.57,VALID,0,VALID,104,VALID,0,VALID,24.1227,VALID,39,VALID,0,
2012-11-15, 02:21:05,VALID,1008.56,VALID,0,VALID,104,VALID,0,VALID,24.1209,VALID,39,VALID,0,
2012-11-15, 02:22:05,VALID,1008.57,VALID,0,VALID,104,VALID,0,VALID,24.1227,VALID,39,VALID,0,
2012-11-15, 02:23:05,VALID,1008.56,VALID,0,VALID,104,VALID,0.112112,VALID,24.1209,VALID,39,VALID,0,
2012-11-15, 02:24:05,VALID,1008.55,VALID,0,VALID,104,VALID,0,VALID,24.1812,VALID,39,VALID,0,
2012-11-15, 02:25:05,VALID,1008.49,VALID,0,VALID,104,VALID,0,VALID,24.1812,VALID,39,VALID,0,
2012-11-15, 02:26:05,VALID,1008.47,VALID,0,VALID,104,VALID,0.112112,VALID,24.2007,VALID,38,VALID,0,
2012-11-15, 02:27:05,VALID,1008.49,VALID,0,VALID,104,VALID,0,VALID,24.222,VALID,38,VALID,0,
2012-11-15, 02:28:05,VALID,1008.49,VALID,0,VALID,104,VALID,0,VALID,24.1812,VALID,38,VALID,0,
2012-11-15, 02:29:05,VALID,1008.52,VALID,0,VALID,104,VALID,0,VALID,24.1617,VALID,38,VALID,0,
2012-11-15, 02:30:05,VALID,1008.55,VALID,0,VALID,104,VALID,0,VALID,24.1617,VALID,38,VALID,0,
2012-11-15, 02:31:05,VALID,1008.55,VALID,0,VALID,104,VALID,0,VALID,24.1599,VALID,38,VALID,0,
2012-11-15, 02:32:05,VALID,1008.56,VALID,0,VALID,104,VALID,0,VALID,24.1209,VALID,38,VALID,0,
2012-11-15, 02:33:05,VALID,1008.56,VALID,0,VALID,104,VALID,0.112112,VALID,24.1404,VALID,38,VALID,0,
2012-11-15, 02:34:05,VALID,1008.59,VALID,0,VALID,104,VALID,0.112112,VALID,24.1227,VALID,39,VALID,0,
2012-11-15, 02:35:05,VALID,1008.62,VALID,0,VALID,104,VALID,0.112112,VALID,24.1014,VALID,39,VALID,0,
2012-11-15, 02:36:05,VALID,1008.67,VALID,0,VALID,104,VALID,0.112112,VALID,24.1227,VALID,40,VALID,0,
2012-11-15, 02:37:05,VALID,1008.67,VALID,0,VALID,104,VALID,0.112112,VALID,24.0819,VALID,39,VALID,0,
2012-11-15, 02:38:05,VALID,1008.66,VALID,0,VALID,104,VALID,0,VALID,24.1014,VALID,56,VALID,0,
2012-11-15, 02:39:05,VALID,1008.66,VALID,0,VALID,104,VALID,0,VALID,24.1227,VALID,56,VALID,0,
2012-11-15, 02:40:05,VALID,1008.64,VALID,0,VALID,104,VALID,0,VALID,24.1014,VALID,55,VALID,0,
2012-11-15, 02:41:05,VALID,1008.62,VALID,0,VALID,104,VALID,0.112112,VALID,24.1227,VALID,55,VALID,0,
2012-11-15, 02:42:05,VALID,1008.63,VALID,0,VALID,104,VALID,0,VALID,24.1227,VALID,61,VALID,0,
2012-11-15, 02:43:05,VALID,1008.64,VALID,0,VALID,104,VALID,0,VALID,24.1227,VALID,54,VALID,0.644141,
2012-11-15, 02:44:05,VALID,1008.65,VALID,0,VALID,104,VALID,0,VALID,24.1014,VALID,57,VALID,0.421094,
2012-11-15, 02:45:05,VALID,1008.7,VALID,0,VALID,104,VALID,0,VALID,24.1227,VALID,57,VALID,0.760938,
2012-11-15, 02:46:05,VALID,1008.7,VALID,0,VALID,104,VALID,0,VALID,24.1032,VALID,57,VALID,0.476953,
2012-11-15, 02:47:05,VALID,1008.72,VALID,0,VALID,104,VALID,0,VALID,24.1032,VALID,57,VALID,0.194141,
2012-11-15, 02:48:05,VALID,1008.73,VALID,0,VALID,104,VALID,0,VALID,24.0837,VALID,57,VALID,0.417578,
2012-11-15, 02:49:05,VALID,1008.72,VALID,0,VALID,104,VALID,0,VALID,24.0643,VALID,57,VALID,0.392969,
2012-11-15, 02:50:05,VALID,1008.72,VALID,0,VALID,104,VALID,0,VALID,24.0856,VALID,57,VALID,0.254297,
2012-11-15, 02:51:05,VALID,1008.72,VALID,0,VALID,104,VALID,0,VALID,24.0856,VALID,57,VALID,0.342187,
2012-11-15, 02:52:05,VALID,1008.73,VALID,0,VALID,104,VALID,0,VALID,24.0643,VALID,57,VALID,0.412109,
2012-11-15, 02:53:05,VALID,1008.77,VALID,0,VALID,104,VALID,0,VALID,24.0856,VALID,57,VALID,0.0472656,
2012-11-15, 02:54:05,VALID,1008.79,VALID,0,VALID,104,VALID,0,VALID,24.0448,VALID,57,VALID,0.0015625,
2012-11-15, 02:55:05,VALID,1008.78,VALID,0,VALID,104,VALID,0,VALID,24.0856,VALID,57,VALID,0,
2012-11-15, 02:56:05,VALID,1008.81,VALID,0,VALID,104,VALID,0,VALID,24.0448,VALID,56,VALID,0,
2012-11-15, 02:57:05,VALID,1008.81,VALID,0,VALID,104,VALID,0,VALID,24.0448,VALID,56,VALID,0,
2012-11-15, 02:58:05,VALID,1008.79,VALID,0,VALID,104,VALID,0,VALID,24.0661,VALID,56,VALID,0,
2012-11-15, 02:59:05,VALID,1008.79,VALID,0,VALID,104,VALID,0,VALID,24.0856,VALID,57,VALID,0,
2012-11-15, 03:00:05,VALID,1008.77,VALID,0,VALID,104,VALID,0,VALID,24.0643,VALID,57,VALID,0,
2012-11-15, 03:01:05,VALID,1008.75,VALID,0,VALID,104,VALID,0,VALID,24.0837,VALID,57,VALID,0,
2012-11-15, 03:02:05,VALID,1008.75,VALID,0,VALID,104,VALID,0,VALID,24.0643,VALID,57,VALID,0,
2012-11-15, 03:03:05,VALID,1008.74,VALID,0,VALID,104,VALID,0,VALID,24.0429,VALID,57,VALID,0,
2012-11-15, 03:04:05,VALID,1008.74,VALID,0,VALID,104,VALID,0,VALID,24.0235,VALID,57,VALID,0,
2012-11-15, 03:05:05,VALID,1008.75,VALID,0,VALID,104,VALID,0,VALID,24.0429,VALID,57,VALID,0,
2012-11-15, 03:06:05,VALID,1008.76,VALID,0,VALID,104,VALID,0,VALID,24.0253,VALID,57,VALID,0,
2012-11-15, 03:07:05,VALID,1008.75,VALID,0,VALID,104,VALID,0,VALID,24.0448,VALID,57,VALID,0,
2012-11-15, 03:08:05,VALID,1008.76,VALID,0,VALID,104,VALID,0,VALID,24.0448,VALID,57,VALID,0,
2012-11-15, 03:09:05,VALID,1008.73,VALID,0,VALID,104,VALID,0,VALID,24.0235,VALID,57,VALID,0,
2012-11-15, 03:10:05,VALID,1008.73,VALID,0,VALID,104,VALID,0,VALID,24.0235,VALID,57,VALID,0,
2012-11-15, 03:11:05,VALID,1008.72,VALID,0,VALID,104,VALID,0,VALID,24.0429,VALID,57,VALID,0,
2012-11-15, 03:12:05,VALID,1008.76,VALID,0,VALID,104,VALID,0,VALID,24.0643,VALID,57,VALID,0,
2012-11-15, 03:13:05,VALID,1008.75,VALID,0,VALID,104,VALID,0,VALID,24.0624,VALID,57,VALID,0,
2012-11-15, 03:14:05,VALID,1008.74,VALID,0,VALID,104,VALID,0,VALID,24.0429,VALID,57,VALID,0.157031,
2012-11-15, 03:15:05,VALID,1008.71,VALID,0,VALID,104,VALID,0,VALID,24.0624,VALID,57,VALID,0.463672,
2012-11-15, 03:16:05,VALID,1008.7,VALID,0,VALID,104,VALID,0,VALID,24.0643,VALID,57,VALID,0.578125,
2012-11-15, 03:17:05,VALID,1008.69,VALID,0,VALID,104,VALID,0,VALID,24.0448,VALID,57,VALID,0.519141,
2012-11-15, 03:18:05,VALID,1008.64,VALID,0,VALID,104,VALID,0,VALID,24.004,VALID,57,VALID,0.788281,
2012-11-15, 03:19:05,VALID,1008.61,VALID,0,VALID,104,VALID,0,VALID,24.0253,VALID,58,VALID,0.652734,
2012-11-15, 03:20:05,VALID,1008.57,VALID,0,VALID,104,VALID,0,VALID,24.0235,VALID,71,VALID,0.613672,
2012-11-15, 03:21:05,VALID,1008.55,VALID,0,VALID,104,VALID,0,VALID,24.0235,VALID,69,VALID,1.02539,
2012-11-15, 03:22:05,VALID,1008.53,VALID,0,VALID,104,VALID,0,VALID,24.0253,VALID,42,VALID,0.833984,
2012-11-15, 03:23:05,VALID,1008.52,VALID,0,VALID,104,VALID,0,VALID,24.004,VALID,41,VALID,0.344531,
2012-11-15, 03:24:05,VALID,1008.56,VALID,0,VALID,104,VALID,0,VALID,24.004,VALID,43,VALID,0.187891,
2012-11-15, 03:25:05,VALID,1008.56,VALID,0,VALID,104,VALID,0,VALID,24.0253,VALID,43,VALID,0.227734,
2012-11-15, 03:26:05,VALID,1008.54,VALID,0,VALID,104,VALID,0,VALID,23.9845,VALID,42,VALID,0.00195313,
2012-11-15, 03:27:05,VALID,1008.53,VALID,0,VALID,104,VALID,0,VALID,23.965,VALID,41,VALID,0.460156,
2012-11-15, 03:28:05,VALID,1008.53,VALID,0,VALID,104,VALID,0,VALID,23.9863,VALID,39,VALID,0,
2012-11-15, 03:29:05,VALID,1008.56,VALID,0,VALID,104,VALID,0,VALID,23.9863,VALID,40,VALID,0,
2012-11-15, 03:30:05,VALID,1008.56,VALID,0,VALID,104,VALID,0,VALID,23.965,VALID,12,VALID,0.667969,
2012-11-15, 03:31:05,VALID,1008.55,VALID,0,VALID,104,VALID,0,VALID,23.9881,VALID,11,VALID,0.253125,
2012-11-15, 03:32:05,VALID,1008.55,VALID,0,VALID,104,VALID,0,VALID,23.9881,VALID,11,VALID,0.119922,
2012-11-15, 03:33:05,VALID,1008.54,VALID,0,VALID,104,VALID,0,VALID,23.9473,VALID,11,VALID,0,
2012-11-15, 03:34:05,VALID,1008.56,VALID,0,VALID,104,VALID,0,VALID,23.9473,VALID,11,VALID,0.103125,
2012-11-15, 03:35:04,VALID,1008.57,VALID,0,VALID,104,VALID,0,VALID,23.9473,VALID,11,VALID,0.00117188,
2012-11-15, 03:36:04,VALID,1008.58,VALID,0,VALID,104,VALID,0,VALID,23.9473,VALID,11,VALID,0,
2012-11-15, 03:37:04,VALID,1008.62,VALID,0,VALID,104,VALID,0,VALID,23.9473,VALID,11,VALID,0.185156,
2012-11-15, 03:38:04,VALID,1008.61,VALID,0,VALID,104,VALID,0,VALID,23.9473,VALID,353,VALID,0.185156,
2012-11-15, 03:39:04,VALID,1008.66,VALID,0,VALID,104,VALID,0,VALID,23.9278,VALID,353,VALID,0.0703125,
2012-11-15, 03:40:04,VALID,1008.66,VALID,0,VALID,104,VALID,0,VALID,23.9473,VALID,353,VALID,0,
2012-11-15, 03:41:04,VALID,1008.69,VALID,0,VALID,104,VALID,0,VALID,23.9278,VALID,353,VALID,0.395312,
2012-11-15, 03:42:04,VALID,1008.73,VALID,0,VALID,104,VALID,0,VALID,23.9491,VALID,353,VALID,0,
2012-11-15, 03:43:04,VALID,1008.73,VALID,0,VALID,104,VALID,0,VALID,23.9491,VALID,353,VALID,0.175,
2012-11-15, 03:44:04,VALID,1008.75,VALID,0,VALID,104,VALID,0,VALID,23.9278,VALID,353,VALID,0.258203,
2012-11-15, 03:45:04,VALID,1008.76,VALID,0,VALID,104,VALID,0,VALID,23.9491,VALID,351,VALID,0.742969,
2012-11-15, 03:46:04,VALID,1008.8,VALID,0,VALID,104,VALID,0,VALID,23.9473,VALID,313,VALID,0.626953,
2012-11-15, 03:47:04,VALID,1008.83,VALID,0,VALID,104,VALID,0,VALID,23.965,VALID,312,VALID,0.455859,
2012-11-15, 03:48:04,VALID,1008.85,VALID,0,VALID,104,VALID,0,VALID,23.965,VALID,314,VALID,0.965234,
2012-11-15, 03:49:04,VALID,1008.9,VALID,0,VALID,104,VALID,0,VALID,23.9845,VALID,314,VALID,0.479297,
2012-11-15, 03:50:04,VALID,1008.91,VALID,0,VALID,104,VALID,0,VALID,23.9845,VALID,340,VALID,0.689062,
2012-11-15, 03:51:04,VALID,1008.91,VALID,0,VALID,104,VALID,0,VALID,23.9845,VALID,328,VALID,0.561328,
2012-11-15, 03:52:04,VALID,1008.9,VALID,0,VALID,104,VALID,0,VALID,23.9845,VALID,329,VALID,0.816016,
2012-11-15, 03:53:04,VALID,1008.88,VALID,0,VALID,104,VALID,0,VALID,24.004,VALID,330,VALID,0.297266,
2012-11-15, 03:54:04,VALID,1008.89,VALID,0,VALID,104,VALID,0,VALID,24.004,VALID,330,VALID,0.214844,
2012-11-15, 03:55:04,VALID,1008.87,VALID,0,VALID,104,VALID,0,VALID,23.9845,VALID,330,VALID,0.339844,